Location: Ku?niki
(51.4449°N, 17.8974°E)
Time: 19:17:38
(UTC+00:00)

Cosmos 1626 - Pass Details

Date: 18 September 2020
Orbit: 490 x 495 km, 82.5° (Epoch: 22 October)

Event Time Altitude Azimuth Distance (km) Brightness Sun altitude
Rises 20:12:49 0° 339° (NNW) 2,591 6.8 -28.4°
Reaches altitude 10° 20:15:11 10° 326° (NNW) 1,701 5.7 -28.6°
Enters shadow 20:17:34 24° 289° (WNW) 1,074 4.3 -28.9°
